When you browse on this site, cookies collect data to enhance your experience and personalize the content and advertising you see.
Visit our Privacy Policy to learn more. By continuing to use the site, you agree to this use of cookies and data.
EN

Hourly Weather Vidnozhyne

Today, 14 August, Friday

Time Temperature Precipitation Wind Pressure Humidity
00:00 +17°C° 0 mm 2 mps 753 mmHg 58%
01:00 +17°C° 0 mm 2 mps 753 mmHg 60%
02:00 +16°C° 0 mm 2 mps 753 mmHg 64%
03:00 +16°C° 0 mm 2 mps 753 mmHg 65%
04:00 +16°C° 0 mm 2 mps 753 mmHg 66%
05:00 +16°C° 0 mm 3 mps 753 mmHg 67%
06:00 +18°C° 0 mm 3 mps 753 mmHg 61%
07:00 +19°C° 0 mm 3 mps 753 mmHg 54%
08:00 +21°C° 0 mm 4 mps 753 mmHg 48%
09:00 +22°C° 0 mm 4 mps 753 mmHg 45%
10:00 +22°C° 0 mm 4 mps 753 mmHg 43%
11:00 +23°C° 0 mm 4 mps 753 mmHg 41%
12:00 +23°C° 0 mm 4 mps 753 mmHg 39%
13:00 +23°C° 0 mm 4 mps 753 mmHg 38%
14:00 +25°C° 0 mm 4 mps 753 mmHg 36%
15:00 +25°C° 0 mm 5 mps 753 mmHg 36%
16:00 +25°C° 0 mm 5 mps 753 mmHg 35%
17:00 +23°C° 0 mm 5 mps 753 mmHg 35%
18:00 +22°C° 0 mm 5 mps 753 mmHg 40%
19:00 +20°C° 0 mm 5 mps 753 mmHg 44%
20:00 +18°C° 0 mm 4 mps 753 mmHg 49%
21:00 +18°C° 0 mm 4 mps 754 mmHg 52%
22:00 +17°C° 0 mm 4 mps 754 mmHg 54%
23:00 +16°C° 0 mm 3 mps 754 mmHg 56%

Tomorrow, 15 August, Saturday

Time Temperature Precipitation Wind Pressure Humidity
00:00 +16°C° 0 mm 3 mps 754 mmHg 58%
01:00 +14°C° 0 mm 3 mps 754 mmHg 60%
02:00 +14°C° 0 mm 3 mps 754 mmHg 62%
03:00 +13°C° 0 mm 3 mps 754 mmHg 66%
04:00 +13°C° 0 mm 3 mps 754 mmHg 69%
05:00 +13°C° 0 mm 3 mps 754 mmHg 73%
06:00 +16°C° 0 mm 3 mps 755 mmHg 68%
07:00 +18°C° 0 mm 3 mps 755 mmHg 63%
08:00 +19°C° 0 mm 3 mps 755 mmHg 57%
09:00 +21°C° 0 mm 3 mps 755 mmHg 52%
10:00 +22°C° 0 mm 4 mps 755 mmHg 46%
11:00 +25°C° 0 mm 4 mps 755 mmHg 41%
12:00 +25°C° 0 mm 3 mps 755 mmHg 38%
13:00 +26°C° 0 mm 3 mps 755 mmHg 35%
14:00 +26°C° 0 mm 3 mps 755 mmHg 32%
15:00 +26°C° 0 mm 3 mps 754 mmHg 31%
16:00 +26°C° 0 mm 3 mps 754 mmHg 31%
17:00 +26°C° 0 mm 3 mps 754 mmHg 31%
18:00 +24°C° 0 mm 3 mps 754 mmHg 35%
19:00 +21°C° 0 mm 3 mps 754 mmHg 40%
20:00 +19°C° 0 mm 3 mps 754 mmHg 44%
21:00 +18°C° 0 mm 4 mps 754 mmHg 47%
22:00 +18°C° 0 mm 4 mps 754 mmHg 50%
23:00 +17°C° 0 mm 4 mps 755 mmHg 53%

Day after tomorrow, 16 August, Sunday

Time Temperature Precipitation Wind Pressure Humidity
00:00 +15°C° 0 mm 4 mps 755 mmHg 54%
01:00 +16°C° 0 mm 3 mps 754 mmHg 56%
02:00 +16°C° 0 mm 3 mps 754 mmHg 58%
03:00 +14°C° 0 mm 3 mps 754 mmHg 58%
04:00 +14°C° 0 mm 3 mps 754 mmHg 59%
05:00 +15°C° 0 mm 2 mps 754 mmHg 60%
06:00 +17°C° 0 mm 3 mps 755 mmHg 53%
07:00 +19°C° 0 mm 3 mps 755 mmHg 47%
08:00 +21°C° 0 mm 3 mps 755 mmHg 40%
09:00 +22°C° 0 mm 3 mps 755 mmHg 37%
10:00 +25°C° 0 mm 3 mps 755 mmHg 34%
11:00 +26°C° 0 mm 3 mps 755 mmHg 30%
12:00 +26°C° 0 mm 3 mps 755 mmHg 29%
13:00 +27°C° 0 mm 3 mps 755 mmHg 28%
14:00 +28°C° 0 mm 3 mps 754 mmHg 27%
15:00 +27°C° 0 mm 3 mps 754 mmHg 27%
16:00 +27°C° 0 mm 3 mps 754 mmHg 28%
17:00 +27°C° 0 mm 2 mps 754 mmHg 28%
18:00 +25°C° 0 mm 2 mps 754 mmHg 33%
19:00 +23°C° 0 mm 2 mps 754 mmHg 38%
20:00 +21°C° 0 mm 1 mps 755 mmHg 42%
21:00 +21°C° 0 mm 1 mps 755 mmHg 44%
22:00 +20°C° 0 mm 1 mps 755 mmHg 45%
23:00 +20°C° 0 mm 1 mps 755 mmHg 47%

17 August, Monday

Time Temperature Precipitation Wind Pressure Humidity
00:00 +19°C° 0 mm 1 mps 755 mmHg 49%
01:00 +19°C° 0 mm 1 mps 755 mmHg 50%
02:00 +18°C° 0 mm 1 mps 755 mmHg 52%
03:00 +18°C° 0 mm 1 mps 755 mmHg 53%
04:00 +18°C° 0 mm 1 mps 755 mmHg 55%
05:00 +18°C° 0 mm 1 mps 755 mmHg 56%
06:00 +20°C° 0 mm 1 mps 755 mmHg 50%
07:00 +23°C° 0 mm 1 mps 755 mmHg 44%
08:00 +25°C° 0 mm 1 mps 755 mmHg 38%
09:00 +26°C° 0 mm 1 mps 755 mmHg 35%
10:00 +28°C° 0 mm 2 mps 755 mmHg 32%
11:00 +29°C° 0 mm 2 mps 755 mmHg 29%
12:00 +29°C° 0 mm 2 mps 754 mmHg 28%
13:00 +30°C° 0 mm 2 mps 754 mmHg 27%
14:00 +30°C° 0 mm 2 mps 754 mmHg 27%
15:00 +30°C° 0 mm 2 mps 753 mmHg 28%
16:00 +30°C° 0 mm 2 mps 753 mmHg 30%
17:00 +30°C° 0 mm 2 mps 753 mmHg 31%
18:00 +28°C° 0 mm 2 mps 753 mmHg 36%
19:00 +26°C° 0 mm 1 mps 753 mmHg 40%
20:00 +24°C° 0 mm 1 mps 753 mmHg 45%
21:00 +24°C° 0 mm 1 mps 753 mmHg 47%
22:00 +23°C° 0 mm 1 mps 753 mmHg 48%
23:00 +23°C° 0 mm 1 mps 753 mmHg 50%

18 August, Tuesday

Time Temperature Precipitation Wind Pressure Humidity
00:00 +22°C° 0 mm 1 mps 753 mmHg 52%
01:00 +21°C° 0 mm 1 mps 753 mmHg 53%
02:00 +21°C° 0 mm 1 mps 752 mmHg 55%
03:00 +21°C° 0 mm 1 mps 752 mmHg 57%
04:00 +20°C° 0 mm 1 mps 752 mmHg 58%
05:00 +20°C° 0 mm 1 mps 752 mmHg 59%
06:00 +23°C° 0 mm 1 mps 752 mmHg 53%
07:00 +25°C° 0 mm 2 mps 752 mmHg 48%
08:00 +27°C° 0 mm 2 mps 752 mmHg 42%
09:00 +29°C° 0 mm 2 mps 752 mmHg 38%
10:00 +30°C° 0 mm 1 mps 752 mmHg 34%
11:00 +32°C° 0 mm 1 mps 751 mmHg 30%
12:00 +32°C° 0 mm 1 mps 751 mmHg 30%
13:00 +32°C° 0 mm 2 mps 751 mmHg 30%
14:00 +32°C° 0 mm 2 mps 750 mmHg 30%
15:00 +32°C° 0 mm 2 mps 750 mmHg 30%
16:00 +31°C° 0 mm 1 mps 750 mmHg 30%
17:00 +31°C° 0 mm 1 mps 750 mmHg 30%
18:00 +29°C° 0 mm 1 mps 750 mmHg 35%
19:00 +27°C° 0 mm 1 mps 750 mmHg 39%
20:00 +25°C° 0 mm 1 mps 750 mmHg 44%
21:00 +25°C° 0 mm 2 mps 750 mmHg 46%
22:00 +24°C° 0 mm 2 mps 750 mmHg 48%
23:00 +24°C° 0 mm 2 mps 749 mmHg 50%

19 August, Wednesday

Time Temperature Precipitation Wind Pressure Humidity
00:00 +23°C° 0 mm 2 mps 749 mmHg 51%
01:00 +23°C° 0 mm 1 mps 749 mmHg 51%
02:00 +23°C° 0 mm 1 mps 749 mmHg 51%
03:00 +22°C° 0 mm 1 mps 749 mmHg 52%
04:00 +22°C° 0 mm 1 mps 749 mmHg 52%
05:00 +22°C° 0 mm 1 mps 749 mmHg 52%
06:00 +24°C° 0 mm 1 mps 749 mmHg 46%
07:00 +26°C° 0 mm 1 mps 749 mmHg 41%
08:00 +29°C° 0 mm 1 mps 749 mmHg 35%
09:00 +30°C° 0 mm 1 mps 749 mmHg 32%
10:00 +32°C° 0 mm 1 mps 749 mmHg 29%
11:00 +33°C° 0 mm 1 mps 749 mmHg 25%
12:00 +33°C° 0 mm 1 mps 749 mmHg 25%
13:00 +34°C° 0 mm 1 mps 748 mmHg 24%
14:00 +35°C° 0 mm 2 mps 748 mmHg 23%
15:00 +35°C° 0 mm 2 mps 748 mmHg 24%
16:00 +34°C° 0 mm 2 mps 748 mmHg 25%
17:00 +34°C° 0 mm 2 mps 748 mmHg 26%
18:00 +31°C° 0 mm 2 mps 748 mmHg 30%
19:00 +29°C° 0 mm 3 mps 748 mmHg 34%
20:00 +27°C° 0 mm 3 mps 748 mmHg 38%
21:00 +26°C° 0 mm 3 mps 748 mmHg 40%
22:00 +26°C° 0 mm 3 mps 748 mmHg 42%
23:00 +25°C° 0 mm 3 mps 748 mmHg 43%
Show more